Total_Precipitation_Accumulation
0.01 0.07 0.46 0.17 0.04 0.07 0.04 0.03 0.02 0.01 0.01 0.02 0.00 0.00 0.00 0.00 0.00 0.00 0.00 0.00 0.00 0.00 0.00 0.00 0.00 0.00 0.00 0.00 0.00 0.00 0.00 0.00 0.00 0.00 0.00 0.00 0.00 0.00 0.00 0.00 0.00 0.01 0.00
0.00 0.05 0.37 0.16 0.05 0.05 0.07 0.05 0.04 0.01 0.01 0.01 0.01 0.00 0.00 0.00 0.00 0.00 0.00 0.00 0.00 0.00 0.00 0.00 0.00 0.00 0.00 0.00 0.00 0.00 0.00 0.00 0.00 0.00 0.00 0.00 0.00 0.00 0.00 0.00 0.00 0.00 0.00
0.00 0.02 0.39 0.12 0.08 0.07 0.06 0.07 0.05 0.03 0.01 0.00 0.00 0.00 0.00 0.00 0.00 0.00 0.00 0.00 0.00 0.00 0.00 0.00 0.00 0.00 0.00 0.00 0.00 0.00 0.00 0.00 0.00 0.00 0.04 0.14 0.01 0.00 0.00 0.00 0.00 0.00 0.00
0.00 0.00 0.31 0.09 0.05 0.02 0.05 0.07 0.05 0.03 0.00 0.00 0.00 0.00 0.00 0.00 0.00 0.00 0.00 0.00 0.00 0.00 0.00 0.00 0.00 0.00 0.00 0.00 0.00 0.00 0.00 0.00 0.00 0.02 0.17 0.02 0.01 0.00 0.00 0.00 0.00 0.00 0.00
0.01 0.00 0.22 0.12 0.05 0.01 0.04 0.08 0.05 0.03 0.02 0.00 0.00 0.00 0.00 0.00 0.00 0.00 0.00 0.00 0.00 0.00 0.00 0.00 0.00 0.00 0.00 0.00 0.00 0.00 0.00 0.00 0.00 0.02 0.09 0.01 0.01 0.00 0.00 0.00 0.00 0.00 0.00
0.00 0.00 0.14 0.29 0.08 0.07 0.10 0.07 0.04 0.01 0.01 0.01 0.00 0.00 0.00 0.00 0.00 0.00 0.00 0.00 0.00 0.00 0.00 0.00 0.00 0.00 0.00 0.00 0.00 0.00 0.00 0.00 0.00 0.03 0.03 0.01 0.00 0.00 0.00 0.00 0.00 0.00 0.00
0.00 0.00 0.05 0.22 0.18 0.33 0.35 0.08 0.04 0.02 0.01 0.04 0.04 0.01 0.00 0.00 0.00 0.00 0.00 0.00 0.00 0.00 0.00 0.00 0.00 0.00 0.00 0.00 0.00 0.00 0.00 0.00 0.00 0.02 0.03 0.01 0.01 0.00 0.00 0.00 0.00 0.00 0.00
0.00 0.00 0.00 0.06 0.09 0.30 0.65 0.16 0.05 0.04 0.03 0.03 0.06 0.03 0.00 0.00 0.00 0.00 0.00 0.00 0.00 0.00 0.00 0.00 0.00 0.00 0.00 0.00 0.00 0.00 0.00 0.00 0.02 0.02 0.06 0.02 0.01 0.00 0.00 0.00 0.00 0.00 0.00
0.01 0.00 0.00 0.05 0.12 0.37 0.86 0.43 0.15 0.08 0.02 0.07 0.05 0.00 0.00 0.00 0.00 0.00 0.00 0.00 0.00 0.00 0.00 0.00 0.00 0.00 0.00 0.00 0.00 0.00 0.00 0.00 0.11 0.14 0.42 0.03 0.00 0.00 0.00 0.00 0.00 0.00 0.00
0.02 0.01 0.00 0.16 0.91 1.03 0.58 0.38 0.23 0.07 0.05 0.03 0.00 0.00 0.01 0.00 0.00 0.00 0.00 0.00 0.00 0.00 0.00 0.00 0.00 0.00 0.00 0.00 0.00 0.00 0.00 0.00 0.05 0.06 0.09 0.01 0.00 0.00 0.00 0.00 0.00 0.00 0.00
0.10 0.03 0.00 0.09 0.24 0.39 0.34 0.16 0.09 0.05 0.01 0.00 0.00 0.04 0.06 0.01 0.00 0.00 0.00 0.00 0.00 0.00 0.00 0.00 0.00 0.00 0.00 0.00 0.00 0.00 0.00 0.00 0.01 0.02 0.06 0.01 0.03 0.01 0.00 0.00 0.03 0.10 0.15
0.07 0.05 0.02 0.00 0.00 0.01 0.08 0.13 0.11 0.04 0.01 0.02 0.00 0.01 0.05 0.04 0.00 0.00 0.00 0.00 0.00 0.00 0.00 0.00 0.00 0.00 0.00 0.00 0.00 0.00 0.00 0.01 0.02 0.03 0.01 0.00 0.11 0.03 0.04 0.09 0.18 0.31 0.23
0.04 0.07 0.04 0.01 0.00 0.00 0.00 0.06 0.09 0.10 0.06 0.04 0.03 0.05 0.08 0.00 0.00 0.00 0.00 0.00 0.00 0.00 0.00 0.00 0.00 0.00 0.00 0.00 0.00 0.03 0.02 0.03 0.05 0.16 0.05 0.02 0.02 0.07 0.13 0.15 0.29 0.22 0.12
0.01 0.03 0.03 0.00 0.00 0.00 0.00 0.01 0.05 0.08 0.06 0.01 0.04 0.06 0.03 0.01 0.00 0.00 0.00 0.00 0.00 0.00 0.00 0.00 0.00 0.00 0.01 0.01 0.01 0.05 0.02 0.02 0.01 0.03 0.02 0.01 0.02 0.33 0.16 0.12 0.22 0.14 0.11
0.00 0.02 0.05 0.01 0.00 0.00 0.00 0.00 0.00 0.01 0.00 0.00 0.01 0.03 0.02 0.00 0.00 0.00 0.00 0.00 0.00 0.00 0.00 0.00 0.00 0.00 0.00 0.01 0.00 0.00 0.00 0.01 0.01 0.04 0.00 0.05 0.04 0.06 0.09 0.06 0.10 0.12 0.03
0.00 0.00 0.02 0.01 0.00 0.00 0.00 0.00 0.00 0.00 0.00 0.00 0.01 0.01 0.01 0.00 0.00 0.00 0.00 0.00 0.00 0.00 0.00 0.00 0.00 0.00 0.00 0.00 0.00 0.01 0.02 0.05 0.10 0.09 0.05 0.03 0.01 0.04 0.08 0.05 0.07 0.09 0.11
0.00 0.00 0.00 0.01 0.00 0.00 0.00 0.00 0.00 0.00 0.00 0.00 0.00 0.00 0.00 0.00 0.00 0.00 0.00 0.00 0.00 0.00 0.00 0.00 0.00 0.00 0.00 0.00 0.00 0.04 0.14 0.26 0.20 0.13 0.32 0.02 0.02 0.04 0.18 0.30 0.06 0.07 0.08
0.00 0.00 0.00 0.01 0.01 0.00 0.00 0.00 0.00 0.00 0.00 0.00 0.00 0.00 0.00 0.00 0.00 0.00 0.00 0.00 0.00 0.00 0.00 0.00 0.00 0.00 0.00 0.00 0.01 0.11 0.18 0.37 0.33 0.26 0.54 0.01 0.00 0.01 0.32 0.21 0.08 0.06 0.07
0.00 0.00 0.00 0.01 0.01 0.00 0.00 0.01 0.00 0.00 0.00 0.00 0.00 0.00 0.00 0.00 0.00 0.00 0.00 0.00 0.00 0.00 0.00 0.00 0.00 0.00 0.01 0.02 0.03 0.23 0.27 1.07 0.24 0.05 0.02 0.01 0.00 0.01 0.11 0.10 0.13 0.19 0.27
0.00 0.00 0.01 0.05 0.03 0.01 0.06 0.05 0.03 0.04 0.00 0.00 0.00 0.00 0.00 0.00 0.00 0.00 0.00 0.00 0.00 0.00 0.00 0.00 0.00 0.00 0.01 0.00 0.00 0.08 0.22 0.50 0.10 0.10 0.05 0.04 0.02 0.05 0.05 0.08 0.26 0.97 0.28
0.00 0.00 0.02 0.03 0.03 0.02 0.04 0.03 0.04 0.05 0.00 0.00 0.00 0.00 0.00 0.00 0.00 0.00 0.00 0.00 0.00 0.00 0.00 0.00 0.01 0.04 0.05 0.02 0.00 0.01 0.12 0.16 0.15 0.33 0.07 0.03 0.03 0.02 0.03 0.07 0.23 0.38 0.56
0.00 0.00 0.01 0.03 0.02 0.04 0.02 0.04 0.11 0.12 0.01 0.00 0.00 0.00 0.00 0.00 0.00 0.00 0.00 0.00 0.00 0.00 0.00 0.02 0.10 0.07 0.18 0.04 0.06 0.04 0.09 0.06 0.14 0.17 0.08 0.07 0.06 0.00 0.00 0.08 0.09 0.31 0.39
0.00 0.00 0.00 0.01 0.01 0.11 0.09 0.13 0.11 0.08 0.02 0.00 0.01 0.00 0.00 0.00 0.00 0.00 0.00 0.00 0.00 0.00 0.01 0.10 0.12 0.19 0.11 0.08 0.07 0.19 0.15 0.10 0.05 0.06 0.07 0.16 0.09 0.00 0.00 0.04 0.03 0.20 0.14
0.00 0.00 0.00 0.00 0.01 0.11 0.15 0.13 0.10 0.06 0.02 0.01 0.00 0.00 0.00 0.00 0.00 0.00 0.00 0.00 0.00 0.00 0.05 0.14 0.13 0.16 0.07 0.03 0.07 0.12 0.17 0.18 0.06 0.02 0.02 0.11 0.02 0.01 0.00 0.01 0.00 0.01 0.02
0.00 0.00 0.00 0.00 0.01 0.10 0.16 0.19 0.19 0.16 0.11 0.05 0.01 0.01 0.00 0.00 0.00 0.00 0.00 0.00 0.00 0.07 0.13 0.14 0.18 0.07 0.05 0.03 0.06 0.10 0.12 0.08 0.05 0.03 0.05 0.04 0.02 0.01 0.00 0.00 0.00 0.02 0.01
0.00 0.00 0.00 0.00 0.00 0.05 0.11 0.18 0.22 0.18 0.14 0.05 0.01 0.00 0.00 0.00 0.00 0.00 0.00 0.00 0.05 0.11 0.22 0.14 0.06 0.04 0.04 0.04 0.03 0.04 0.05 0.04 0.01 0.00 0.02 0.03 0.02 0.04 0.00 0.00 0.00 0.00 0.02